{"data":{"norad_id":64706,"epoch":"2026-05-25T03:18:13.773024Z","epoch_age_seconds":56959,"freshness":"FRESH","line1":"1 64706U 25142L   26145.13765941  .00001299  00000+0  11660-3 0  9998","line2":"2 64706  69.9999 121.6357 0004095 264.6695  95.3997 14.98338252 50942","mean_motion":14.98338252,"eccentricity":0.0004095,"inclination_deg":69.9999,"raan_deg":121.6357,"arg_perigee_deg":264.6695,"mean_anomaly_deg":95.3997,"bstar":0.0001166,"rev_number":5094,"period_min":96.106469822677,"perigee_km":569.18427889323,"apogee_km":574.87646597126,"semimajor_km":6950.1673724322,"source":"CELESTRAK","updated_at":"2026-05-25T13:38:20.513313Z"}}